User: anonymous   Login
Location: Unspecified
(0.0000°N, 0.0000°E)
Time: 22:42:17
(UTC+00:00)
Language:

STARLINK-3458 - Orbit

View from above orbital plane
View from above orbital plane
View from above satellite
View from above satellite

Ground track
Ground track

The orbit is defined by the following mean orbital elements,

1 51758U          26145.49152670 +.00000000 +00000-0 -14866-3 0 00000
2 51758  53.2118 324.2949 0001380 104.2017 255.9129 15.08853984    02
Epoch (UTC): 25 May 2026 11:47:47
Eccentricity: 0.0001380
inclination: 53.2118°
perigee height: 539 km
apogee height: 541 km
right ascension of ascending node: 324.2949°
argument of perigee: 104.2017°
revolutions per day: 15.08853984
mean anomaly at epoch: 255.9129°

The dashed part of the orbit path shows where the satellite is in the earth's shadow,  

DLR